Theta_e
314 312 312 310 308 308 307 307 307 307 308 307 308 308 308 310 312 315 317 320 320 320 320 321 323 325 326 326 327 327 325 324 324 327 326 326 321 321 325 325 322 321 322
314 312 312 311 310 310 309 307 306 305 304 303 302 303 304 305 307 309 313 316 318 318 318 319 320 321 321 322 323 325 326 325 324 323 326 326 324 320 322 324 322 321 320
309 309 309 309 310 311 310 308 307 303 303 303 303 302 302 301 302 303 304 305 307 310 315 318 320 320 320 319 320 320 322 324 326 325 324 326 325 323 319 319 321 321 319
309 308 307 307 307 309 308 306 304 303 303 304 304 303 303 303 302 302 302 302 302 302 303 310 314 317 320 320 320 320 320 320 321 326 325 324 325 325 323 321 317 314 315
309 308 308 307 305 305 306 305 304 304 304 304 303 303 302 302 302 301 301 301 301 303 304 304 304 307 312 316 319 319 319 319 319 320 325 325 323 325 325 324 322 320 314
308 307 308 308 306 305 305 304 305 305 304 304 302 303 303 304 303 301 300 300 300 302 304 303 304 305 308 311 315 318 319 319 319 320 322 325 323 323 326 325 322 322 317
307 307 307 308 307 307 306 305 305 304 304 303 302 302 302 302 303 301 300 299 299 298 298 299 301 302 303 304 309 314 316 318 319 319 320 324 324 324 323 322 322 323 321
309 308 307 307 307 307 307 306 305 305 304 304 302 302 301 302 302 301 300 299 298 298 298 297 297 297 300 302 303 304 308 312 317 316 320 320 321 322 323 321 322 323 323
309 308 307 307 307 307 307 306 305 304 304 304 303 302 302 301 300 301 300 299 298 297 295 294 294 294 294 298 302 302 304 305 310 316 317 317 318 320 321 320 319 322 323
309 308 307 307 307 308 307 305 304 304 303 304 303 303 301 297 295 294 297 297 296 296 293 292 292 292 292 295 300 301 301 301 303 308 310 315 317 318 319 319 321 323 323
311 308 307 307 307 308 306 304 304 303 304 303 301 298 296 296 296 295 294 296 295 292 292 291 290 291 291 292 293 295 298 300 299 299 303 308 312 317 317 316 315 318 322
310 310 309 306 308 307 305 304 303 302 300 300 300 299 299 296 294 292 292 292 291 291 291 290 290 291 291 291 293 297 297 296 297 299 300 304 307 307 316 316 317 315 317
307 307 307 305 306 305 305 302 300 299 299 300 300 299 299 299 295 292 291 291 292 292 292 292 291 291 292 293 291 292 294 298 299 300 301 300 303 306 307 312 316 317 317
306 306 305 304 303 300 297 298 298 299 300 299 299 296 294 292 291 291 291 292 291 292 292 292 292 291 293 294 295 293 295 295 297 300 300 300 301 302 302 302 305 315 316
305 303 300 299 297 297 298 299 299 298 297 294 292 292 291 291 291 291 291 290 291 292 291 291 291 291 291 291 291 291 290 295 297 298 299 298 298 299 300 301 302 303 311
303 300 298 297 298 299 299 297 294 293 292 292 292 292 291 291 290 290 289 289 290 290 291 290 290 290 290 291 291 292 291 290 292 297 298 297 297 298 298 297 298 300 302
298 297 298 299 298 293 293 292 292 292 292 292 291 291 289 288 287 287 287 288 288 289 289 289 289 289 289 288 288 288 289 289 290 290 293 296 296 297 296 296 297 298 299
298 298 298 295 293 292 292 292 292 292 290 290 289 288 287 287 287 287 288 288 288 288 288 288 288 289 288 288 288 289 289 290 291 291 292 291 293 294 297 297 296 297 298
295 295 294 293 292 292 292 291 291 290 289 288 288 287 287 287 287 287 287 287 287 287 287 287 287 288 288 288 288 288 288 287 288 288 289 291 292 293 295 296 297 297 295
294 294 295 292 292 292 291 290 289 288 287 287 286 286 286 286 286 286 286 286 285 285 285 286 286 286 286 286 286 286 287 287 287 288 288 289 290 292 295 296 296 295 295
294 292 292 292 291 291 289 288 287 286 286 286 286 285 285 285 284 284 284 284 284 285 285 285 285 285 285 285 285 286 286 286 286 287 288 289 290 291 294 295 295 295 294
293 292 292 291 290 288 287 286 285 285 285 284 284 284 284 284 284 284 284 284 285 285 285 284 285 285 285 285 284 285 285 285 286 286 287 288 290 291 292 293 295 295 294
291 290 289 288 287 286 286 285 284 284 284 283 283 283 283 283 283 283 284 284 284 284 284 284 285 285 285 285 285 284 284 285 285 286 288 289 290 293 293 294 295 294 294
289 288 288 287 286 285 284 284 283 283 283 283 283 283 283 283 283 283 283 283 284 284 284 284 285 285 285 285 285 285 285 285 285 285 286 286 287 288 292 294 295 295 294
287 287 286 285 284 284 283 282 283 282 283 283 283 283 284 284 284 284 284 284 284 284 284 284 284 284 284 285 285 285 285 285 285 285 286 286 286 287 287 292 293 293 293
286 286 285 284 283 282 282 282 282 282 283 283 283 284 284 284 284 284 284 284 284 284 285 284 284 284 285 285 285 285 285 285 285 285 286 286 287 287 287 289 290 292 291
Wind_Speed
15 15 16 15 14 15 15 15 15 16 17 17 17 16 16 17 17 18 20 24 23 24 26 25 25 26 27 25 22 24 24 27 32 33 31 28 26 29 30 29 28 27 26
18 19 19 18 17 17 17 17 16 16 16 16 16 15 14 15 16 16 16 17 22 25 27 27 30 31 32 31 32 30 28 29 32 34 34 32 30 29 32 32 30 29 29
20 20 20 21 21 20 19 18 17 16 16 14 13 13 13 14 15 17 18 20 21 22 23 25 25 27 31 34 30 31 33 34 34 36 36 37 35 32 32 35 35 33 32
18 20 21 22 22 22 21 20 18 16 15 14 14 15 15 16 16 16 17 20 21 21 22 24 26 26 26 27 34 33 32 32 38 35 39 41 41 39 36 35 35 35 34
21 21 21 21 22 22 22 21 19 19 17 16 16 16 16 16 17 18 14 14 18 18 18 19 22 25 27 28 28 32 34 34 31 39 42 45 46 44 41 38 36 36 36
26 24 22 22 22 23 24 23 21 21 20 18 19 19 19 20 21 18 18 13 12 17 18 19 19 18 21 23 26 30 31 39 36 33 39 44 46 47 43 39 37 37 38
26 27 27 27 26 26 25 25 23 24 23 21 20 22 22 22 21 20 22 23 22 20 19 21 23 22 19 19 19 22 27 31 34 37 38 33 35 40 47 40 40 38 37
28 29 32 32 33 32 31 30 30 28 27 23 21 20 16 20 25 25 27 29 30 27 25 27 25 24 21 18 18 18 21 24 35 38 36 29 29 23 39 40 40 42 39
35 34 35 36 38 38 37 35 33 31 29 27 26 19 9 10 21 29 30 35 34 33 35 32 30 28 26 24 21 20 19 24 28 39 33 33 23 22 26 41 49 46 43
39 40 40 39 41 41 40 36 32 32 32 30 27 22 17 14 9 18 29 34 36 37 35 35 33 28 26 25 23 22 21 24 28 33 25 27 32 21 31 32 37 51 44
41 42 41 41 42 41 36 34 35 34 33 29 23 18 18 17 19 21 28 38 41 38 36 35 33 32 28 25 24 29 29 27 28 27 36 29 17 24 13 32 29 41 40
34 34 36 40 42 41 36 35 32 28 25 25 22 24 22 17 20 25 30 35 36 40 38 36 33 30 32 29 25 21 21 26 27 26 28 37 31 18 19 18 23 32 40
36 38 34 39 40 38 39 37 30 25 21 24 24 22 24 27 20 26 30 35 35 37 40 39 35 32 24 27 29 25 25 21 20 20 18 25 28 26 20 17 16 22 24
32 30 23 28 31 30 25 20 20 22 28 25 29 21 20 22 25 25 26 29 36 32 32 32 29 29 24 21 25 22 21 22 18 14 10 14 17 18 22 26 23 27 23
25 23 23 25 22 17 18 20 25 21 19 15 17 21 23 25 27 27 28 30 29 33 34 31 30 30 31 28 27 31 29 26 19 18 16 16 15 16 16 20 25 24 28
21 23 24 21 21 21 26 21 16 11 16 20 22 26 28 30 31 32 32 31 32 35 39 32 32 32 32 29 27 26 29 28 29 27 26 20 16 16 20 20 18 18 18
18 14 16 22 22 8 9 11 14 17 21 24 27 30 33 32 33 33 32 31 31 33 39 38 32 33 36 36 35 35 32 31 31 30 32 29 23 19 17 18 19 19 18
16 21 19 11 8 10 14 17 20 25 26 28 31 31 33 34 35 34 33 34 34 35 37 41 36 33 33 32 32 30 31 31 30 29 28 30 32 30 25 24 23 22 22
9 11 10 11 12 14 19 22 25 28 30 31 32 33 34 32 34 34 33 35 36 38 39 41 40 35 35 38 40 39 38 39 38 36 35 33 31 30 29 28 25 25 26
9 8 15 15 18 22 23 26 30 31 34 34 33 33 34 36 39 41 43 45 46 46 45 42 42 35 33 32 33 38 41 39 40 37 35 33 33 29 28 22 26 25 25
16 15 18 20 23 26 29 30 32 30 30 33 36 39 41 41 40 37 35 36 34 36 36 33 32 31 30 29 30 32 37 38 38 35 34 32 31 31 33 30 27 28 28
11 15 19 23 27 29 30 28 29 32 35 37 37 38 39 35 33 32 31 31 31 32 34 34 34 34 31 30 30 30 32 33 36 32 32 32 28 32 31 32 28 28 29
16 19 22 26 30 29 30 30 30 31 35 36 36 35 33 32 33 35 35 34 34 35 35 35 37 36 37 34 31 30 30 30 33 29 26 29 27 27 30 30 27 29 30
20 24 27 28 29 30 29 31 33 33 33 33 30 29 30 31 30 30 30 34 34 34 34 36 36 35 34 31 31 29 29 32 32 31 29 34 35 39 25 24 26 27 28
24 25 27 28 28 30 31 30 28 28 29 29 27 26 28 29 27 27 28 30 32 34 33 33 35 33 29 27 26 27 28 32 33 33 26 29 30 32 37 25 23 26 26
25 26 26 27 29 30 25 25 24 26 28 27 27 27 28 28 29 26 28 31 35 34 33 30 29 28 27 28 26 29 32 35 31 28 28 28 25 23 24 40 33 20 23
Wind_Direction
280 280 284 282 279 280 280 278 276 278 280 284 284 281 281 282 284 286 274 260 265 270 269 268 261 258 260 258 257 254 251 246 249 251 252 248 242 232 226 227 227 227 226
284 283 281 279 278 280 281 281 281 282 282 282 288 293 292 288 289 290 283 270 265 268 270 273 267 264 261 263 264 259 258 253 253 251 251 247 241 236 230 229 231 230 231
286 285 280 279 280 282 284 281 283 284 283 284 285 291 297 299 299 301 302 297 286 272 268 270 275 269 262 264 266 265 262 257 252 251 247 247 243 237 233 233 235 235 234
289 288 284 283 279 276 277 279 282 281 282 286 291 296 301 306 310 309 308 310 313 305 287 275 273 273 266 264 260 261 262 260 256 252 249 244 243 238 234 235 237 239 237
295 288 287 290 280 275 275 274 272 274 277 281 287 291 296 299 302 310 315 307 311 312 308 299 283 279 278 273 264 259 260 257 260 252 250 246 244 240 236 236 238 240 239
295 289 285 288 279 273 274 272 271 272 272 279 283 286 293 296 298 298 306 316 312 300 295 300 302 293 288 280 269 264 269 255 259 261 259 256 239 242 240 238 240 241 240
288 286 283 282 277 273 278 273 269 268 269 273 277 282 290 297 294 294 294 304 310 314 305 290 292 297 297 292 284 271 267 267 256 260 271 267 264 244 244 240 242 238 241
282 283 275 272 271 268 267 266 265 264 264 264 265 278 292 287 291 291 297 302 307 309 308 305 301 292 289 288 286 288 278 274 259 262 259 260 264 260 239 245 240 239 240
284 276 271 267 266 264 261 262 257 253 254 256 256 256 263 263 282 295 294 298 300 304 304 304 302 299 292 281 277 282 282 282 278 251 259 267 269 266 253 232 235 238 242
287 279 271 265 263 258 255 252 244 240 241 242 241 240 241 260 292 300 293 297 298 299 299 301 303 301 290 279 276 270 277 288 288 274 278 246 248 268 257 258 243 230 235
288 278 271 269 258 250 247 241 235 231 231 227 226 230 247 261 285 298 301 297 294 298 299 300 302 301 297 293 285 270 268 273 284 294 279 276 259 240 270 248 250 242 252
298 291 280 260 247 242 236 231 221 217 221 224 231 242 256 286 297 302 300 299 297 299 300 299 298 296 298 294 277 278 277 269 271 279 291 278 269 281 235 259 252 247 238
295 290 282 251 238 232 234 215 209 220 237 242 251 260 269 276 293 288 293 294 297 298 297 297 296 298 295 293 292 284 271 273 273 275 292 285 284 271 282 248 250 243 245
294 283 253 221 211 203 203 220 238 258 270 271 283 303 295 289 284 288 290 295 297 294 294 293 294 293 295 293 298 289 279 267 269 259 270 289 292 277 273 274 261 241 241
291 246 213 199 201 217 243 284 311 306 301 303 291 289 289 288 289 288 286 288 289 290 288 291 290 292 293 291 283 285 282 272 256 251 252 262 272 274 262 263 266 261 249
272 232 219 223 248 272 298 309 316 308 291 286 290 292 292 293 292 291 289 285 283 285 283 285 285 287 288 285 281 282 285 283 267 260 261 264 274 269 272 275 270 274 269
223 227 256 266 308 320 301 301 294 293 294 294 292 294 294 293 291 290 289 285 282 282 283 285 281 282 284 284 284 285 285 283 278 269 263 260 263 252 265 267 266 268 271
259 265 278 294 297 307 301 295 294 296 296 296 296 294 293 294 291 289 288 286 285 283 281 282 282 281 282 285 285 280 275 273 271 270 268 261 259 254 256 261 268 262 264
272 281 294 313 308 297 294 294 296 298 298 298 297 296 295 292 288 286 283 282 281 281 279 279 279 278 277 280 282 281 280 278 275 272 267 265 262 256 251 255 251 251 261
253 268 300 300 293 302 301 299 300 300 299 297 295 292 288 285 285 286 284 282 282 281 280 278 279 278 275 274 272 276 279 278 278 277 270 265 260 257 244 240 244 253 261
322 327 299 293 298 300 301 300 300 299 297 295 292 291 291 291 291 288 286 285 282 278 276 273 273 274 271 269 261 266 268 276 275 273 271 264 256 251 245 244 248 255 264
282 283 285 291 298 302 305 306 303 300 298 297 297 297 296 295 291 287 283 279 275 275 275 271 269 268 268 268 269 265 264 267 270 268 268 261 259 248 247 247 247 255 256
287 291 301 304 306 308 308 307 305 302 300 299 299 300 300 296 296 294 292 288 280 274 270 267 264 265 270 272 274 273 267 262 263 260 254 258 251 251 245 239 243 248 251
305 306 307 309 309 311 311 308 307 303 301 300 302 301 302 302 301 300 294 289 289 287 283 278 268 272 271 270 269 270 270 268 267 264 261 264 256 257 249 233 231 239 251
307 310 312 312 313 313 314 313 310 307 304 303 305 307 307 305 306 303 294 290 288 285 285 279 274 273 270 266 262 260 259 256 256 263 256 259 264 265 255 239 235 244 252
313 313 313 313 315 317 318 316 313 307 309 310 311 314 317 315 311 303 298 296 294 293 292 286 275 270 267 263 256 250 253 252 250 254 261 259 262 262 268 254 244 248 262